TimeCDT,TemperatureF,Dew PointF,Humidity,Sea Level PressureIn,VisibilityMPH,Wind Direction,Wind SpeedMPH,Gust SpeedMPH,PrecipitationIn,Events,Conditions,WindDirDegrees,DateUTC
12:52 AM,69.1,66.9,93,29.80,5.0,Calm,Calm,-,N/A,,Clear,0,2013-09-01 05:52:00
1:52 AM,66.9,64.9,93,29.80,4.0,ESE,3.5,-,N/A,,Clear,110,2013-09-01 06:52:00
2:52 AM,68.0,66.0,93,29.79,4.0,Calm,Calm,-,N/A,,Clear,0,2013-09-01 07:52:00
3:16 AM,66.2,64.4,94,29.80,1.5,Calm,Calm,-,N/A,,Clear,0,2013-09-01 08:16:00
3:27 AM,66.2,64.4,94,29.81,3.0,Calm,Calm,-,N/A,,Clear,0,2013-09-01 08:27:00
3:36 AM,64.4,64.4,100,29.81,1.8,Calm,Calm,-,N/A,,Clear,0,2013-09-01 08:36:00
3:44 AM,64.4,62.6,94,29.81,1.2,Calm,Calm,-,N/A,,Clear,0,2013-09-01 08:44:00
3:47 AM,66.2,64.4,94,29.81,2.0,Calm,Calm,-,N/A,,Clear,0,2013-09-01 08:47:00
3:52 AM,66.0,64.0,93,29.80,1.8,Calm,Calm,-,N/A,,Clear,0,2013-09-01 08:52:00
3:58 AM,64.4,64.4,100,29.80,0.8,Calm,Calm,-,N/A,,Mist,0,2013-09-01 08:58:00
4:03 AM,66.2,64.4,94,29.80,1.2,Calm,Calm,-,N/A,,Partly Cloudy,0,2013-09-01 09:03:00
4:08 AM,66.2,64.4,94,29.80,3.0,Calm,Calm,-,N/A,,Clear,0,2013-09-01 09:08:00
4:52 AM,66.9,64.9,93,29.78,4.0,Calm,Calm,-,N/A,,Clear,0,2013-09-01 09:52:00
5:52 AM,66.9,64.9,93,29.78,4.0,WNW,4.6,-,N/A,,Clear,300,2013-09-01 10:52:00
6:25 AM,66.2,64.4,94,29.82,4.0,WNW,3.5,-,N/A,,Partly Cloudy,290,2013-09-01 11:25:00
6:38 AM,64.4,64.4,100,29.81,2.5,Calm,Calm,-,N/A,,Scattered Clouds,0,2013-09-01 11:38:00
6:52 AM,64.9,64.0,97,29.80,2.5,SSE,3.5,-,N/A,,Scattered Clouds,150,2013-09-01 11:52:00
7:52 AM,69.1,66.9,93,29.81,2.5,SW,4.6,-,N/A,,Scattered Clouds,220,2013-09-01 12:52:00
8:31 AM,71.6,69.8,94,29.81,3.0,WSW,4.6,-,N/A,,Scattered Clouds,250,2013-09-01 13:31:00
8:52 AM,73.9,70.0,87,29.79,5.0,WSW,5.8,-,N/A,,Clear,250,2013-09-01 13:52:00
9:52 AM,75.9,70.0,82,29.78,7.0,Calm,Calm,-,N/A,,Partly Cloudy,0,2013-09-01 14:52:00
10:52 AM,80.1,70.0,71,29.76,10.0,Variable,3.5,-,N/A,,Clear,0,2013-09-01 15:52:00
11:52 AM,86.0,69.1,57,29.76,10.0,WNW,8.1,-,N/A,,Clear,290,2013-09-01 16:52:00
12:52 PM,88.0,68.0,51,29.76,10.0,West,11.5,17.3,N/A,,Clear,270,2013-09-01 17:52:00
1:52 PM,91.0,64.9,42,29.76,10.0,West,8.1,-,N/A,,Partly Cloudy,280,2013-09-01 18:52:00
2:52 PM,90.0,63.0,40,29.74,10.0,WNW,11.5,-,N/A,,Scattered Clouds,300,2013-09-01 19:52:00
3:52 PM,89.1,62.1,40,29.74,10.0,West,12.7,-,N/A,,Mostly Cloudy,280,2013-09-01 20:52:00
4:52 PM,88.0,64.9,46,29.74,10.0,West,9.2,-,N/A,,Clear,280,2013-09-01 21:52:00
5:52 PM,86.0,64.0,48,29.76,10.0,WNW,18.4,-,N/A,,Clear,300,2013-09-01 22:52:00
6:52 PM,82.0,57.0,42,29.78,10.0,NW,17.3,21.9,N/A,,Clear,310,2013-09-01 23:52:00
7:52 PM,78.1,57.9,50,29.81,10.0,WNW,9.2,-,N/A,,Clear,300,2013-09-02 00:52:00
8:52 PM,75.9,59.0,56,29.83,10.0,NW,12.7,21.9,N/A,,Clear,320,2013-09-02 01:52:00
9:52 PM,73.0,59.0,61,29.85,10.0,NW,9.2,-,N/A,,Clear,310,2013-09-02 02:52:00
10:52 PM,71.1,57.9,63,29.86,10.0,NW,5.8,-,N/A,,Clear,320,2013-09-02 03:52:00
11:52 PM,70.0,59.0,68,29.87,10.0,NNW,8.1,-,N/A,,Clear,330,2013-09-02 04:52:00